This demonstration page uses our WeatherBlox Daily Observations layout. Learn more.

Hourly Observations for October 21, 2020

Temp ( °F °C ) Dew Point ( °F °C ) Humidity (%) Winds ( mph kmh ) Pressure ( in mb ) Visibility ( mi km ) Precip ( " mm )
12:54 am 00:54 Clear 36 2.2 34 1.1 93 93 Calm 30.17 1022 8 12.87472 0 0
3:54 am 03:54 Clear 36 2.2 32 0 86 86 Calm 30.21 1023 9 14.48 0 0
4:54 am 04:54 Clear 34 1.1 31 -0.6 89 89 N 3 5 30.21 1023 7 11.27 0 0
6:54 am 06:54 Clear 38 3.3 35 1.7 89 89 NNE 7 11 30.18 1022 10 16.0934 0 0
8:54 am 08:54 Sunny 40 4.4 36 2.2 86 86 E 6 9 30.18 1022 8 12.87472 0 0
9:54 am 09:54 Partly Cloudy 43 6.1 37 2.8 80 80 ENE 8 13 30.19 1022 10 16.0934 0 0
10:54 am 10:54 Mostly Cloudy 47 8.3 38 3.3 71 71 E 8 13 30.19 1022 10 16.0934 0 0
11:14 am 11:14 Cloudy 47 8.3 37 2.8 69 69 ENE 8 13 30.19 1022 10 16.0934 0 0
11:54 am 11:54 Cloudy 48 8.9 38 3.3 68 68 ENE 8 13 30.18 1022 10 16.0934 0 0
12:22 pm 12:22 Cloudy 49 9.4 38 3.3 66 66 ENE 7 11 30.17 1022 10 16.0934 0 0
12:54 pm 12:54 Cloudy 50 10 39 3.9 66 66 ESE 7 11 30.16 1021 10 16.0934 0 0
1:54 pm 13:54 Cloudy 51 10.6 39 3.9 64 64 ESE 13 20 30.11 1020 10 16.0934 0 0
2:54 pm 14:54 Cloudy 49 9.4 39 3.9 69 69 ESE 8 13 30.09 1019 9 14.48406 0 0
3:32 pm 15:32 Cloudy with Haze 48 8.9 40 4.4 74 74 ESE 10 17 30.08 1019 6 9.65604 0 0
3:54 pm 15:54 Cloudy with Haze 47 8.3 40 4.4 77 77 E 9 15 30.07 1018 6 9.65604 0 0
4:22 pm 16:22 Cloudy with Haze 47 8.3 41 5 80 80 E 10 17 30.07 1018 4 6.43736 0 0
4:31 pm 16:31 Cloudy with Mist and Fog 46 7.8 42 5.6 86 86 undefined N/A 30.07 1018 2 3.21868 0 0
4:54 pm 16:54 Cloudy with Mist and Fog 46 7.8 42 5.6 86 86 ENE 8 13 30.06 1018 5 8.0467 0 0
5:07 pm 17:07 Cloudy with Haze 46 7.8 41 5 83 83 E 8 13 30.06 1018 5 8.0467 0 0
5:14 pm 17:14 Cloudy with Haze 46 7.8 41 5 83 83 E 9 15 30.06 1018 5 8.0467 0 0
5:54 pm 17:54 Cloudy with Haze 46 7.8 41 5 83 83 ENE 7 11 30.06 1018 6 9.65604 0 0
6:21 pm 18:21 Cloudy 46 7.8 41 5 83 83 ENE 8 13 30.06 1018 7 11.26538 0 0
6:54 pm 18:54 Cloudy with Mist and Fog 46 7.8 42 5.6 86 86 ESE 9 15 30.06 1018 6 9.65604 0 0
7:24 pm 19:24 Cloudy with Mist and Fog 46 7.8 43 6.1 89 89 SE 7 11 30.07 1018 2.5 4.02335 0 0
7:54 pm 19:54 Cloudy with Mist and Fog 46 7.8 43 6.1 89 89 ESE 7 11 30.06 1018 3 4.82802 0.01 0.254
8:54 pm 20:54 Cloudy 46 7.8 43 6.1 89 89 E 9 15 30.05 1018 9 14.48406 0 0
9:54 pm 21:54 Cloudy 46 7.8 43 6.1 89 89 E 7 11 30.04 1017 10 16.0934 0 0
10:54 pm 22:54 Cloudy 46 7.8 43 6.1 89 89 E 8 13 30.02 1017 8 12.87472 0 0
11:08 pm 23:08 Cloudy 46 7.8 43 6.1 89 89 E 9 15 30.02 1017 8 12.87472 0 0
11:54 pm 23:54 Cloudy with Mist and Fog 46 7.8 44 6.7 93 93 E 9 15 30 1016 5 8.0467 0 0

Powered by AerisWeather